| time (UTC) | temp C | wind direction | speed KPH | gust KPH | rain 1hr cm | rain 24hr cm | rain mn cm | humidity % | barometer mb |
| 20260906130347 | 183 | 0.0 | 0.0 | 0.00 | 0.00 | 0.00 | 100 | 1007.2 | |
| 20260906123347 | 32 | 0.0 | 0.0 | 0.00 | 0.00 | 0.00 | 54 | 1007.4 | |
| 20260906120347 | 33 | 0.0 | 0.0 | 0.00 | 0.00 | 0.00 | 52 | 1007.3 | |
| 20260906110347 | 31 | 0.0 | 0.0 | 0.00 | 0.00 | 0.00 | 57 | 1007.8 | |
| 20260906103347 | 31 | 0.0 | 0.0 | 0.00 | 0.00 | 0.00 | 47 | 1007.8 | |
| 20260906100347 | 30 | 0.0 | 0.0 | 0.00 | 0.00 | 0.00 | 59 | 1008.0 | |
| 20260906093347 | 30 | 0.0 | 0.0 | 0.00 | 0.00 | 0.00 | 59 | 1008.2 | |
| 20260906090347 | 29 | 0.0 | 0.0 | 0.00 | 0.00 | 0.00 | 63 | 1007.8 | |
| 20260906083347 | 29 | 0.0 | 0.0 | 0.00 | 0.00 | 0.00 | 61 | 1007.8 | |
| 20260906080347 | 28 | 0.0 | 0.0 | 0.00 | 0.00 | 0.00 | 63 | 1007.9 | |
| 20260906073346 | 28 | 0.0 | 0.0 | 0.00 | 0.00 | 0.00 | 67 | 1008.1 | |
| 20260906070346 | 28 | 0.0 | 0.0 | 0.00 | 0.00 | 0.00 | 68 | 1008.3 | |
| 20260906063346 | 28 | 0.0 | 0.0 | 0.00 | 0.00 | 0.00 | 67 | 1008.3 | |
| 20260906053346 | 27 | 0.0 | 0.0 | 0.00 | 0.00 | 0.00 | 71 | 1007.6 | |
| 20260906050346 | 27 | 0.0 | 0.0 | 0.00 | 0.00 | 0.00 | 70 | 1007.5 | |
| 20260906043346 | 26 | 0.0 | 0.0 | 0.00 | 0.00 | 0.00 | 72 | 1007.5 | |
| 20260906033346 | 27 | 0.0 | 0.0 | 0.00 | 0.00 | 0.00 | 67 | 1007.3 | |
| 20260906023346 | 27 | 0.0 | 0.0 | 0.00 | 0.00 | 0.00 | 65 | 1007.1 | |
| 20260906020346 | 27 | 0.0 | 0.0 | 0.00 | 0.00 | 0.00 | 66 | 1006.9 | |
| 20260906010346 | 27 | 0.0 | 0.0 | 0.00 | 0.00 | 0.00 | 60 | 1006.8 | |
| 20260906003346 | 27 | 0.0 | 0.0 | 0.00 | 0.00 | 0.00 | 66 | 1006.8 | |
| 20260906000348 | 26 | 0.0 | 0.0 | 0.00 | 0.00 | 0.00 | 71 | 1006.8 | |
| 20260905233346 | 27 | 0.0 | 0.0 | 0.00 | 0.00 | 0.00 | 59 | 1006.8 | |
| 20260905230346 | 27 | 0.0 | 0.0 | 0.00 | 0.00 | 0.00 | 58 | 1006.9 | |
| 20260905223346 | 27 | 0.0 | 0.0 | 0.00 | 0.00 | 0.00 | 62 | 1007.0 | |
| 20260905220346 | 28 | 0.0 | 0.0 | 0.00 | 0.00 | 0.00 | 57 | 1007.3 | |
| 20260905213346 | 28 | 0.0 | 0.0 | 0.00 | 0.00 | 0.00 | 58 | 1007.5 | |
| 20260905210346 | 28 | 0.0 | 0.0 | 0.00 | 0.00 | 0.00 | 59 | 1007.6 | |
| 20260905200346 | 28 | 0.0 | 0.0 | 0.00 | 0.00 | 0.00 | 59 | 1007.7 | |
| 20260905190346 | 28 | 0.0 | 0.0 | 0.00 | 0.00 | 0.00 | 53 | 1007.8 | |
| 20260905183346 | 28 | 0.0 | 0.0 | 0.00 | 0.00 | 0.00 | 65 | 1007.9 | |
| 20260905180346 | 28 | 0.0 | 0.0 | 0.00 | 0.00 | 0.00 | 52 | 1007.9 | |
| 20260905173346 | 29 | 0.0 | 0.0 | 0.00 | 0.00 | 0.00 | 63 | 1007.8 | |
| 20260905170346 | 29 | 0.0 | 0.0 | 0.00 | 0.00 | 0.00 | 64 | 1007.6 | |
| 20260905160346 | 30 | 0.0 | 0.0 | 0.00 | 0.00 | 0.00 | 60 | 1007.0 | |
| 20260905153346 | 31 | 0.0 | 0.0 | 0.00 | 0.00 | 0.00 | 57 | 1007.0 | |
| 20260905150346 | 32 | 0.0 | 0.0 | 0.00 | 0.00 | 0.00 | 54 | 1006.9 | |
| 20260905143346 | 183 | 0.0 | 0.0 | 0.00 | 0.00 | 0.00 | 53 | 1006.9 | |
| 20260905140346 | 33 | 0.0 | 0.0 | 0.00 | 0.00 | 0.00 | 52 | 1006.8 |